"2016-05-13 00:00:00",1628571,4.377,152.9,2.449,0.177,18.77,107.2866,17.93,18.96,17.73,0,110.9,13.07,18.74,114.9
"2016-05-13 00:00:30",1628572,4.712,155.4,5.104,0.215,18.83,107.2779,17.91,18.96,17.29,0,110.9,13.07,18.72,117.4
"2016-05-13 00:01:00",1628573,3.926,138.8,8.21,0.534,18.9,107.2666,17.88,18.96,17.22,0,110.9,13.07,18.69,100.8
"2016-05-13 00:01:30",1628574,4.025,137.2,6.919,0.315,18.87,107.2543,17.85,18.96,17.46,0,110.9,13.07,18.66,99.2
"2016-05-13 00:02:00",1628575,3.569,141.3,3.42,0.356,18.84,107.2537,17.85,18.95,17.43,0,110.9,13.07,18.66,103.3
"2016-05-13 00:02:30",1628576,3.338,133.2,3.415,0.345,18.83,107.2546,17.85,18.92,17.44,0,110.9,13.07,18.66,95.2
"2016-05-13 00:03:00",1628577,3.579,134.9,3.458,0.244,18.87,107.2558,17.85,18.92,17.79,0,110.9,13.07,18.67,96.9
"2016-05-13 00:03:30",1628578,3.492,149,12.31,0.571,18.92,107.257,17.85,18.92,17.6,0,110.9,13.07,18.67,111.0
"2016-05-13 00:04:00",1628579,2.829,149.4,8.47,0.506,18.88,107.2582,17.86,18.91,17.6,0,110.9,13.07,18.67,111.4
"2016-05-13 00:04:30",1628580,3.193,155,2.625,0.261,18.9,107.2604,17.86,18.9,17.42,0,110.9,13.07,18.68,117.0
"2016-05-13 00:05:00",1628581,3.439,170.5,6.355,0.158,18.95,107.2592,17.86,18.9,17.14,0,110.9,13.07,18.67,132.5
"2016-05-13 00:05:30",1628582,3.018,165.3,4.555,0.319,18.94,107.2565,17.85,18.9,16.92,0,110.9,13.07,18.67,127.3
"2016-05-13 00:06:00",1628583,3.936,151.3,6.515,1.024,18.97,107.2527,17.84,18.9,16.86,0,110.9,13.07,18.66,113.3
"2016-05-13 00:06:30",1628584,5.256,151.5,5.657,0.613,19.07,107.248,17.83,18.88,16.71,0,110.9,13.07,18.65,113.5
"2016-05-13 00:07:00",1628585,4.102,158.8,8.12,0.42,19.08,107.2347,17.8,18.88,16.78,0,110.9,13.07,18.61,120.8
"2016-05-13 00:07:30",1628586,4.522,147,5.728,0.319,19.12,107.2338,17.79,18.87,17.01,0,110.9,13.07,18.61,109.0
"2016-05-13 00:08:00",1628587,4.738,160,3.418,0.194,19.19,107.2323,17.79,18.88,17.17,0,110.9,13.07,18.60,122.0
"2016-05-13 00:08:30",1628588,5.334,158.5,7.087,0.381,19.21,107.2317,17.79,18.85,17.06,0,110.9,13.07,18.60,120.5
"2016-05-13 00:09:00",1628589,4.557,165.1,6.165,0.583,19.22,107.2335,17.79,18.86,17.61,0,110.9,13.07,18.61,127.1
"2016-05-13 00:09:30",1628590,5.453,148.6,4.408,0.679,19.16,107.2338,17.79,18.86,17.63,0,110.9,13.07,18.61,110.6
"2016-05-13 00:10:00",1628591,5.587,157.2,3.537,0.3,19.22,107.2335,17.79,18.85,17.36,0,110.9,13.07,18.61,119.2
"2016-05-13 00:10:30",1628592,5.038,152.1,3.346,0.312,19.36,107.236,17.8,18.83,17.25,0,110.9,13.07,18.61,114.1
"2016-05-13 00:11:00",1628593,4.668,157.4,4.341,0.175,19.42,107.2187,17.76,18.83,17.51,0,110.9,13.07,18.57,119.4
"2016-05-13 00:11:30",1628594,4.508,156.6,3.475,0.306,19.36,107.2131,17.74,18.8,17.37,0,110.9,13.07,18.56,118.6
"2016-05-13 00:12:00",1628595,4.337,160.8,1.653,0.267,19.43,107.2194,17.76,18.8,16.73,0,110.9,13.07,18.57,122.8
"2016-05-13 00:12:30",1628596,4.59,161.8,1.584,0.127,19.47,107.2167,17.75,18.79,16.64,0,110.9,13.07,18.56,123.8
"2016-05-13 00:13:00",1628597,4.485,159,2.355,0.193,19.38,107.1951,17.7,18.77,16.68,0,110.9,13.07,18.51,121.0
"2016-05-13 00:13:30",1628598,4.536,155.4,2.08,0.153,19.47,107.1887,17.68,18.74,16.63,0,110.9,13.07,18.49,117.4
"2016-05-13 00:14:00",1628599,5.103,158.9,1.893,0.192,19.5,107.1887,17.68,18.74,16.48,0,110.9,13.07,18.49,120.9
"2016-05-13 00:14:30",1628600,4.94,162,1.355,0.103,19.48,107.1799,17.66,18.71,16.45,0,110.9,13.07,18.47,124.0
"2016-05-13 00:15:00",1628601,4.695,162.8,1.625,0.128,19.38,107.1557,17.59,18.71,16.42,0,110.9,13.07,18.41,124.8
"2016-05-13 00:15:30",1628602,4.473,167.6,1.005,0.303,19.33,107.1549,17.59,18.68,16.4,0,110.9,13.07,18.41,129.6
"2016-05-13 00:16:00",1628603,4.396,165.1,4.515,0.148,19.23,107.1493,17.58,18.65,16.41,0,110.9,13.08,18.39,127.1
"2016-05-13 00:16:30",1628604,4.237,162.7,3.011,0.122,19.3,107.1251,17.52,18.63,16.35,0,110.9,13.08,18.33,124.7
"2016-05-13 00:17:00",1628605,4.061,167.8,1.724,0.098,19.42,107.1212,17.51,18.63,16.48,0,110.9,13.08,18.32,129.8
"2016-05-13 00:17:30",1628606,4.332,167,1.266,0.108,19.42,107.1212,17.51,18.61,16.45,0,110.9,13.09,18.32,129.0
"2016-05-13 00:18:00",1628607,4.454,168.2,1.491,0.108,19.45,107.1085,17.47,18.58,16.45,0,110.9,13.09,18.29,130.2
"2016-05-13 00:18:30",1628608,4.554,169.5,1.224,0.104,19.47,107.0894,17.42,18.57,16.51,0,110.9,13.09,18.24,131.5
"2016-05-13 00:19:00",1628609,4.797,173.6,2.972,0.272,19.46,107.0874,17.42,18.55,16.59,0,110.9,13.09,18.23,135.6
"2016-05-13 00:19:30",1628610,5.088,178.4,1.068,0.138,19.45,107.0874,17.42,18.52,16.76,0,110.9,13.09,18.23,140.4
"2016-05-13 00:20:00",1628611,5.322,176.2,1.865,0.267,19.46,107.0835,17.41,18.5,16.6,0,110.9,13.09,18.22,138.2
"2016-05-13 00:20:30",1628612,5.069,171.9,2.837,0.315,19.42,107.0627,17.36,18.49,16.63,0,110.9,13.09,18.17,133.9
"2016-05-13 00:21:00",1628613,4.737,174.2,2.183,0.276,19.24,107.0552,17.34,18.47,16.68,0,110.9,13.09,18.15,136.2
"2016-05-13 00:21:30",1628614,5.268,173.9,1.978,0.112,19.12,107.0567,17.34,18.47,16.78,0,110.9,13.09,18.15,135.9
"2016-05-13 00:22:00",1628615,5.413,172,2.895,0.349,19.12,107.0612,17.35,18.44,16.89,0,110.9,13.09,18.16,134.0
"2016-05-13 00:22:30",1628616,4.865,162,2.678,0.216,19.12,107.06,17.35,18.42,17.04,0,110.9,13.09,18.16,124.0
"2016-05-13 00:23:00",1628617,4.277,164.4,3.342,0.185,19.03,107.0542,17.33,18.41,16.95,0,110.9,13.09,18.15,126.4
"2016-05-13 00:23:30",1628618,4.243,157.2,3.276,0.178,18.99,107.0547,17.34,18.4,17.14,0,110.9,13.09,18.15,119.2
"2016-05-13 00:24:00",1628619,3.583,151.2,3.738,0.357,18.98,107.0548,17.34,18.39,17.45,0,110.9,13.09,18.15,113.2
"2016-05-13 00:24:30",1628620,3.637,156.4,4.703,0.382,18.88,107.0577,17.34,18.39,17.7,0,110.8,13.09,18.16,118.4
"2016-05-13 00:25:00",1628621,4.353,173.3,3.402,0.249,18.77,107.0642,17.36,18.38,17.62,0,110.8,13.09,18.17,135.3
"2016-05-13 00:25:30",1628622,4.063,163.6,5.554,0.292,18.81,107.0746,17.39,18.38,17.72,0,110.8,13.09,18.20,125.6
"2016-05-13 00:26:00",1628623,4.295,164.6,3.296,0.184,18.82,107.0811,17.4,18.37,17.47,0,110.8,13.09,18.22,126.6
"2016-05-13 00:26:30",1628624,4.404,166.8,4.001,0.155,18.83,107.0829,17.41,18.4,17.82,0,110.8,13.09,18.22,128.8
"2016-05-13 00:27:00",1628625,4.069,162.8,2.232,0.207,18.86,107.0844,17.41,18.39,18.21,0,110.8,13.09,18.22,124.8
"2016-05-13 00:27:30",1628626,4.534,162.1,1.848,0.202,18.9,107.0844,17.41,18.39,17.86,0,110.8,13.09,18.22,124.1
"2016-05-13 00:28:00",1628627,4.504,163.9,1.039,0.121,18.9,107.0886,17.42,18.39,17.59,0,110.8,13.09,18.24,125.9
"2016-05-13 00:28:30",1628628,4.239,165,1.199,0.147,19.06,107.0936,17.44,18.4,17.29,0,110.8,13.09,18.25,127.0
"2016-05-13 00:29:00",1628629,4.211,160,2.874,0.255,19.25,107.1072,17.47,18.41,17.25,0,110.8,13.08,18.28,122.0
"2016-05-13 00:29:30",1628630,4.348,164.2,3.219,0.19,19.29,107.112,17.48,18.42,16.99,0,110.8,13.08,18.30,126.2
"2016-05-13 00:30:00",1628631,3.889,159.1,4.938,0.207,19.31,107.1157,17.49,18.43,16.87,0,110.8,13.09,18.30,121.1
"2016-05-13 00:30:30",1628632,4.177,159.2,2.712,0.103,19.3,107.1162,17.49,18.44,16.84,0,110.8,13.08,18.31,121.2
"2016-05-13 00:31:00",1628633,4.447,166.4,2.518,0.191,19.34,107.1154,17.49,18.43,16.69,0,110.8,13.08,18.30,128.4
"2016-05-13 00:31:30",1628634,4.211,155.2,3.664,0.119,19.29,107.1143,17.49,18.44,16.67,0,110.8,13.08,18.30,117.2
"2016-05-13 00:32:00",1628635,4.282,161.4,4.514,0.188,19.25,107.1103,17.48,18.44,16.68,0,110.8,13.08,18.29,123.4
"2016-05-13 00:32:30",1628636,4.143,168.1,2.089,0.167,19.29,107.1109,17.48,18.44,16.7,0,110.8,13.09,18.29,130.1
"2016-05-13 00:33:00",1628637,4.049,169.5,1.764,0.28,19.32,107.1072,17.47,18.44,16.72,0,110.8,13.09,18.28,131.5
"2016-05-13 00:33:30",1628638,3.654,168.9,3.048,0.128,19.36,107.1025,17.46,18.45,16.75,0,110.8,13.09,18.27,130.9
"2016-05-13 00:34:00",1628639,4.004,163.3,1.413,0.119,19.32,107.0988,17.45,18.44,16.73,0,110.8,13.09,18.26,125.3
"2016-05-13 00:34:30",1628640,3.903,165.6,1.517,0.073,19.32,107.094,17.44,18.44,16.66,0,110.8,13.09,18.25,127.6
"2016-05-13 00:35:00",1628641,3.841,162.9,1.626,0.07,19.27,107.0909,17.43,18.44,16.68,0,110.8,13.09,18.24,124.9
"2016-05-13 00:35:30",1628642,4.011,160.4,1.857,0.176,19.29,107.0898,17.43,18.44,16.73,0,110.8,13.09,18.24,122.4
"2016-05-13 00:36:00",1628643,4.345,161.3,1.177,0.153,19.33,107.0898,17.43,18.43,16.97,0,110.8,13.09,18.24,123.3
"2016-05-13 00:36:30",1628644,4.474,160.8,1.556,0.253,19.37,107.0898,17.43,18.43,17.09,0,110.8,13.09,18.24,122.8
"2016-05-13 00:37:00",1628645,4.47,158.7,1.571,0.065,19.44,107.0898,17.43,18.44,17.3,0,110.8,13.09,18.24,120.7
"2016-05-13 00:37:30",1628646,4.284,160.2,1.286,0.092,19.44,107.0898,17.43,18.44,17.23,0,110.8,13.09,18.24,122.2
"2016-05-13 00:38:00",1628647,4.235,157.4,3.745,0.135,19.5,107.0898,17.43,18.42,17.42,0,110.8,13.09,18.24,119.4
"2016-05-13 00:38:30",1628648,4.008,158.1,2.405,0.18,19.52,107.0898,17.43,18.43,17.55,0,110.8,13.09,18.24,120.1
"2016-05-13 00:39:00",1628649,4.443,157.7,2.618,0.193,19.52,107.0881,17.42,18.43,17.65,0,110.8,13.1,18.23,119.7
"2016-05-13 00:39:30",1628650,4.255,158.6,2.387,0.203,19.58,107.0808,17.4,18.42,17.83,0,110.8,13.1,18.22,120.6
"2016-05-13 00:40:00",1628651,3.927,158.1,2.037,0.17,19.53,107.0774,17.39,18.42,17.85,0,110.8,13.1,18.21,120.1
"2016-05-13 00:40:30",1628652,4.185,149.7,4.07,0.247,19.51,107.0639,17.36,18.41,17.77,0,110.8,13.1,18.17,111.7
"2016-05-13 00:41:00",1628653,3.768,149.2,2.082,0.149,19.52,107.0566,17.34,18.4,18.05,0,110.8,13.1,18.15,111.2
"2016-05-13 00:41:30",1628654,3.859,146.5,3.634,0.114,19.54,107.056,17.34,18.4,17.83,0,110.8,13.1,18.15,108.5
"2016-05-13 00:42:00",1628655,4.009,146.4,2.484,0.192,19.58,107.0563,17.34,18.39,17.51,0,110.8,13.1,18.15,108.4
"2016-05-13 00:42:30",1628656,3.783,142.9,1.616,0.146,19.53,107.056,17.34,18.39,17.52,0,110.8,13.1,18.15,104.9
"2016-05-13 00:43:00",1628657,3.828,147.5,2.192,0.154,19.54,107.056,17.34,18.38,17.68,0,110.8,13.1,18.15,109.5
"2016-05-13 00:43:30",1628658,4.164,152.4,2.15,0.133,19.55,107.0538,17.33,18.37,18.03,0,110.8,13.1,18.15,114.4
"2016-05-13 00:44:00",1628659,3.36,145.1,2.53,0.2,19.54,107.0468,17.32,18.37,18.52,0,110.8,13.1,18.13,107.1
"2016-05-13 00:44:30",1628660,3.663,145,1.683,0.148,19.53,107.0322,17.28,18.36,18.17,0,110.8,13.1,18.09,107.0
"2016-05-13 00:45:00",1628661,3.556,148.4,1.841,0.09,19.65,107.0256,17.26,18.34,18.09,0,110.8,13.09,18.07,110.4
"2016-05-13 00:45:30",1628662,3.604,147.5,2.023,0.129,19.6,107.0277,17.27,18.35,17.95,0,110.8,13.09,18.08,109.5
"2016-05-13 00:46:00",1628663,3.299,145.7,3.856,0.087,19.55,107.0304,17.27,18.34,18.26,0,110.8,13.09,18.09,107.7
"2016-05-13 00:46:30",1628664,3.538,145.8,2.589,0.105,19.58,107.0334,17.28,18.32,18.28,0,110.8,13.09,18.09,107.8
"2016-05-13 00:47:00",1628665,3.481,147.6,0.988,0.096,19.67,107.0358,17.29,18.32,18.23,0,110.8,13.09,18.10,109.6
"2016-05-13 00:47:30",1628666,3.353,150.6,1.052,0.212,19.53,107.0297,17.27,18.31,18.02,0,110.8,13.09,18.08,112.6
"2016-05-13 00:48:00",1628667,3.496,153.8,1.497,0.107,19.64,107.0204,17.25,18.31,17.61,0,110.8,13.09,18.06,115.8
"2016-05-13 00:48:30",1628668,3.44,156.5,1.085,0.08,19.69,107.0095,17.22,18.29,17.24,0,110.8,13.09,18.03,118.5
"2016-05-13 00:49:00",1628669,3.201,155.2,1.595,0.052,19.64,107.0074,17.21,18.29,17.2,0,110.8,13.09,18.03,117.2
"2016-05-13 00:49:30",1628670,3.211,158.2,1.44,0.054,19.66,107.0123,17.23,18.27,17.17,0,110.8,13.09,18.04,120.2
"2016-05-13 00:50:00",1628671,3.101,161.2,2.319,0.109,19.54,107.0171,17.24,18.27,17.07,0,110.8,13.1,18.05,123.2
"2016-05-13 00:50:30",1628672,3.236,161.8,1.567,0.121,19.59,107.0216,17.25,18.27,17.12,0,110.8,13.1,18.06,123.8
"2016-05-13 00:51:00",1628673,3.3,163.1,1.212,0.101,19.68,107.0133,17.23,18.25,17.17,0,110.8,13.1,18.04,125.1
"2016-05-13 00:51:30",1628674,3.255,162.8,1.377,0.062,19.73,106.9987,17.19,18.23,17.03,0,110.8,13.1,18.00,124.8
"2016-05-13 00:52:00",1628675,3.211,161.1,2.065,0.145,19.64,106.9909,17.17,18.23,17.02,0,110.8,13.1,17.98,123.1
"2016-05-13 00:52:30",1628676,3.302,161.8,2.601,0.109,19.64,106.9909,17.17,18.21,17.07,0,110.8,13.1,17.98,123.8
"2016-05-13 00:53:00",1628677,3.725,161.7,1.753,0.158,19.6,106.9909,17.17,18.22,17.12,0,110.8,13.1,17.98,123.7
"2016-05-13 00:53:30",1628678,3.624,166.5,1.275,0.099,19.67,106.9906,17.17,18.2,17.23,0,110.8,13.1,17.98,128.5
"2016-05-13 00:54:00",1628679,3.866,163.7,1.956,0.087,19.7,106.9855,17.16,18.19,17.26,0,110.8,13.1,17.97,125.7
"2016-05-13 00:54:30",1628680,3.753,160,1.172,0.082,19.61,106.9807,17.15,18.17,17.36,0,110.8,13.11,17.96,122.0
"2016-05-13 00:55:00",1628681,3.962,161.4,2.71,0.164,19.66,106.9627,17.1,18.16,17.47,0,110.8,13.11,17.91,123.4
"2016-05-13 00:55:30",1628682,4.07,163.1,1.2,0.106,19.61,106.9571,17.09,18.15,17.51,0,110.8,13.11,17.90,125.1
"2016-05-13 00:56:00",1628683,3.86,162.5,1.651,0.075,19.62,106.9571,17.09,18.14,17.5,0,110.8,13.11,17.90,124.5
"2016-05-13 00:56:30",1628684,3.804,158.6,1.125,0.126,19.65,106.9571,17.09,18.14,17.66,0,110.7,13.11,17.90,120.6
"2016-05-13 00:57:00",1628685,3.79,156.2,1.927,0.108,19.58,106.9571,17.09,18.12,17.61,0,110.7,13.11,17.90,118.2
"2016-05-13 00:57:30",1628686,3.712,150.5,1.594,0.103,19.61,106.9557,17.08,18.12,17.51,0,110.7,13.11,17.89,112.5
"2016-05-13 00:58:00",1628687,3.839,148.6,1.841,0.147,19.62,106.9509,17.07,18.1,17.44,0,110.7,13.11,17.88,110.6
"2016-05-13 00:58:30",1628688,3.736,150.3,1.453,0.142,19.57,106.9484,17.06,18.09,17.43,0,110.7,13.11,17.87,112.3
"2016-05-13 00:59:00",1628689,4.041,153.4,1.586,0.149,19.61,106.9433,17.05,18.09,17.59,0,110.7,13.11,17.86,115.4
"2016-05-13 00:59:30",1628690,3.922,154.4,1.134,0.126,19.59,106.9304,17.02,18.09,17.7,0,110.7,13.11,17.83,116.4
"2016-05-13 01:00:00",1628691,4.061,153.9,1.401,0.097,19.63,106.9233,17,18.09,17.76,0,110.7,13.11,17.81,115.9
"2016-05-13 01:00:30",1628692,3.753,149.6,1.498,0.085,19.64,106.9233,17,18.07,17.79,0,110.7,13.11,17.81,111.6
"2016-05-13 01:01:00",1628693,3.643,151.3,1.644,0.093,19.58,106.9233,17,18.08,17.82,0,110.7,13.11,17.81,113.3
"2016-05-13 01:01:30",1628694,3.611,150.7,1.229,0.105,19.58,106.9233,17,18.07,17.85,0,110.7,13.11,17.81,112.7
"2016-05-13 01:02:00",1628695,3.512,150.3,1.313,0.069,19.57,106.9236,17,18.06,17.81,0,110.7,13.11,17.81,112.3
"2016-05-13 01:02:30",1628696,3.787,154.9,1.663,0.112,19.48,106.9239,17,18.07,17.86,0,110.7,13.11,17.81,116.9
"2016-05-13 01:03:00",1628697,4.085,155.4,0.842,0.089,19.37,106.9272,17.01,18.06,18.06,0,110.7,13.11,17.82,117.4
"2016-05-13 01:03:30",1628698,4.016,158.3,2.02,0.082,19.37,106.9315,17.02,18.06,18.2,0,110.7,13.11,17.83,120.3
"2016-05-13 01:04:00",1628699,4.018,154,1.789,0.196,19.34,106.933,17.02,18.08,18.23,0,110.7,13.11,17.83,116.0
"2016-05-13 01:04:30",1628700,4.11,156.5,1.777,0.151,19.38,106.9324,17.02,18.06,18.26,0,110.7,13.11,17.83,118.5
"2016-05-13 01:05:00",1628701,4.157,155.6,1.092,0.119,19.34,106.9354,17.03,18.06,18.26,0,110.7,13.11,17.84,117.6
"2016-05-13 01:05:30",1628702,4.132,158,1.276,0.058,19.45,106.9369,17.03,18.06,18.15,0,110.7,13.11,17.84,120.0
"2016-05-13 01:06:00",1628703,4.272,156.6,1.014,0.162,19.42,106.9396,17.04,18.07,18.07,0,110.8,13.11,17.85,118.6
"2016-05-13 01:06:30",1628704,4.349,159.5,2.013,0.159,19.5,106.9384,17.04,18.06,17.87,0,110.7,13.11,17.85,121.5
"2016-05-13 01:07:00",1628705,4.263,156.9,1.236,0.074,19.44,106.9432,17.05,18.07,17.77,0,110.7,13.11,17.86,118.9
"2016-05-13 01:07:30",1628706,4.079,158.4,1.719,0.085,19.61,106.9471,17.06,18.06,17.75,0,110.7,13.11,17.87,120.4
"2016-05-13 01:08:00",1628707,4.123,159.7,2.327,0.132,19.57,106.9465,17.06,18.06,17.74,0,110.7,13.11,17.87,121.7
"2016-05-13 01:08:30",1628708,3.896,159.1,1.274,0.077,19.64,106.9495,17.07,18.07,17.77,0,110.7,13.12,17.88,121.1
"2016-05-13 01:09:00",1628709,4.022,160,1.499,0.087,19.63,106.9525,17.07,18.07,17.7,0,110.7,13.12,17.89,122.0
"2016-05-13 01:09:30",1628710,4.076,157.1,1.582,0.081,19.59,106.9534,17.08,18.08,17.89,0,110.7,13.12,17.89,119.1
"2016-05-13 01:10:00",1628711,4.073,157.7,2.463,0.076,19.6,106.958,17.09,18.07,18.35,0,110.7,13.12,17.90,119.7
"2016-05-13 01:10:30",1628712,4.169,154.6,1.656,0.164,19.55,106.958,17.09,18.08,18.47,0,110.7,13.12,17.90,116.6
"2016-05-13 01:11:00",1628713,4.389,156.8,2.021,0.117,19.57,106.9589,17.09,18.07,18.61,0,110.7,13.12,17.90,118.8
"2016-05-13 01:11:30",1628714,4.337,158.4,1.05,0.087,19.59,106.9592,17.09,18.07,18.54,0,110.7,13.12,17.90,120.4
"2016-05-13 01:12:00",1628715,4.382,158,1.458,0.216,19.55,106.9595,17.09,18.07,18.74,0,110.7,13.12,17.90,120.0
"2016-05-13 01:12:30",1628716,4.279,159.3,2.067,0.197,19.54,106.9595,17.09,18.08,18.83,0,110.7,13.12,17.90,121.3
"2016-05-13 01:13:00",1628717,4.323,154.2,1.177,0.136,19.45,106.9595,17.09,18.08,18.91,0,110.7,13.12,17.90,116.2
"2016-05-13 01:13:30",1628718,3.87,149.7,1.494,0.127,19.39,106.9595,17.09,18.07,18.9,0,110.7,13.12,17.90,111.7
"2016-05-13 01:14:00",1628719,3.76,151,2.799,0.159,19.32,106.9595,17.09,18.08,18.92,0,110.7,13.12,17.90,113.0
"2016-05-13 01:14:30",1628720,3.846,155.5,1.538,0.14,19.28,106.9595,17.09,18.07,18.94,0,110.7,13.12,17.90,117.5
"2016-05-13 01:15:00",1628721,3.937,156.2,1.373,0.088,19.26,106.9595,17.09,18.08,18.96,0,110.7,13.12,17.90,118.2
"2016-05-13 01:15:30",1628722,4.007,155.5,0.908,0.07,19.19,106.9595,17.09,18.07,18.97,0,110.7,13.12,17.90,117.5
"2016-05-13 01:16:00",1628723,3.859,156.3,1.151,0.119,19.26,106.9595,17.09,18.07,18.98,0,110.7,13.12,17.90,118.3
"2016-05-13 01:16:30",1628724,3.682,159.4,2.328,0.158,19.31,106.9595,17.09,18.07,18.97,0,110.7,13.12,17.90,121.4
"2016-05-13 01:17:00",1628725,3.785,162.2,2.277,0.221,19.36,106.9595,17.09,18.07,18.96,0,110.7,13.12,17.90,124.2
"2016-05-13 01:17:30",1628726,3.877,163.2,1.886,0.169,19.43,106.9595,17.09,18.09,18.79,0,110.7,13.12,17.90,125.2
"2016-05-13 01:18:00",1628727,4.027,160.5,3.23,0.15,19.45,106.9595,17.09,18.1,18.67,0,110.7,13.12,17.90,122.5
"2016-05-13 01:18:30",1628728,4.429,154.7,2.14,0.117,19.42,106.9623,17.1,18.1,18.83,0,110.7,13.12,17.91,116.7
"2016-05-13 01:19:00",1628729,4.326,157.3,0.839,0.065,19.37,106.9662,17.11,18.1,18.98,0,110.7,13.12,17.92,119.3
"2016-05-13 01:19:30",1628730,4.713,158,1.262,0.126,19.52,106.9733,17.13,18.12,19.03,0,110.7,13.12,17.94,120.0
"2016-05-13 01:20:00",1628731,4.807,158.4,1.377,0.159,19.58,106.978,17.14,18.12,19.17,0,110.7,13.11,17.95,120.4
"2016-05-13 01:20:30",1628732,4.843,157.2,1.975,0.142,19.59,106.9797,17.14,18.11,19.39,0,110.7,13.11,17.96,119.2
"2016-05-13 01:21:00",1628733,4.844,154.6,1.347,0.119,19.62,106.9769,17.14,18.12,19.52,0,110.7,13.11,17.95,116.6
"2016-05-13 01:21:30",1628734,4.759,153.9,3.122,0.097,19.55,106.9752,17.13,18.12,19.5,0,110.7,13.11,17.94,115.9
"2016-05-13 01:22:00",1628735,4.906,158.3,0.827,0.092,19.49,106.9701,17.12,18.12,19.53,0,110.7,13.11,17.93,120.3
"2016-05-13 01:22:30",1628736,4.881,157,1.318,0.074,19.63,106.9617,17.1,18.12,19.44,0,110.7,13.11,17.91,119.0
"2016-05-13 01:23:00",1628737,4.676,156.9,0.728,0.083,19.63,106.9595,17.09,18.13,19.38,0,110.7,13.11,17.90,118.9
"2016-05-13 01:23:30",1628738,4.437,157.2,1.262,0.062,19.54,106.9595,17.09,18.12,19.42,0,110.7,13.11,17.90,119.2
"2016-05-13 01:24:00",1628739,4.28,155.3,0.658,0.076,19.6,106.9595,17.09,18.11,19.43,0,110.7,13.11,17.90,117.3
"2016-05-13 01:24:30",1628740,4.275,155.7,1.326,0.042,19.63,106.9595,17.09,18.11,19.48,0,110.7,13.12,17.90,117.7
"2016-05-13 01:25:00",1628741,4.209,157.4,2.138,0.145,19.69,106.9595,17.09,18.11,19.27,0,110.7,13.12,17.90,119.4
"2016-05-13 01:25:30",1628742,3.802,157.2,2.332,0.125,19.7,106.9595,17.09,18.1,18.82,0,110.7,13.12,17.90,119.2
"2016-05-13 01:26:00",1628743,4.02,155.6,2.365,0.278,19.61,106.9555,17.08,18.1,18.78,0,110.7,13.12,17.89,117.6
"2016-05-13 01:26:30",1628744,4.345,157.5,1.253,0.084,19.52,106.9462,17.06,18.09,19.09,0,110.7,13.12,17.87,119.5
"2016-05-13 01:27:00",1628745,4.257,156,1.084,0.084,19.54,106.9352,17.03,18.09,19.17,0,110.7,13.12,17.84,118.0
"2016-05-13 01:27:30",1628746,4.475,154.8,0.714,0.075,19.57,106.9299,17.02,18.08,19.13,0,110.7,13.12,17.83,116.8
"2016-05-13 01:28:00",1628747,4.675,156.7,1.349,0.062,19.59,106.9259,17.01,18.07,19.18,0,110.7,13.12,17.82,118.7
"2016-05-13 01:28:30",1628748,4.552,159.7,1.063,0.164,19.52,106.9257,17,18.06,19.09,0,110.7,13.12,17.82,121.7
"2016-05-13 01:29:00",1628749,4.413,155.6,1.425,0.161,19.49,106.9257,17,18.07,19.13,0,110.7,13.12,17.82,117.6
"2016-05-13 01:29:30",1628750,4.515,153.6,1.516,0.091,19.5,106.9257,17,18.06,19.18,0,110.7,13.12,17.82,115.6
"2016-05-13 01:30:00",1628751,4.646,153,1.012,0.069,19.49,106.9257,17,18.05,19.22,0,110.7,13.12,17.82,115.0
"2016-05-13 01:30:30",1628752,5.055,156.1,2.732,0.282,19.51,106.9257,17,18.04,19.32,0,110.7,13.12,17.82,118.1
"2016-05-13 01:31:00",1628753,5.333,156.6,1.837,0.094,19.56,106.9257,17,18.05,19.64,0,110.7,13.12,17.82,118.6
"2016-05-13 01:31:30",1628754,5.055,154.5,1.365,0.123,19.47,106.9257,17,18.03,19.65,0,110.7,13.12,17.82,116.5
"2016-05-13 01:32:00",1628755,4.989,154.5,2.835,0.208,19.45,106.9257,17,18.04,19.67,0,110.7,13.12,17.82,116.5
"2016-05-13 01:32:30",1628756,5.115,157.8,1.336,0.091,19.43,106.9257,17,18.03,19.69,0,110.7,13.12,17.82,119.8
"2016-05-13 01:33:00",1628757,5.047,155.2,1.197,0.109,19.42,106.9257,17,18.03,19.65,0,110.7,13.12,17.82,117.2
"2016-05-13 01:33:30",1628758,4.932,158.8,3.059,0.097,19.36,106.9245,17,18.03,19.87,0,110.7,13.13,17.81,120.8
"2016-05-13 01:34:00",1628759,4.944,159.8,1.506,0.173,19.37,106.9217,16.99,18.03,19.99,0,110.7,13.12,17.81,121.8
"2016-05-13 01:34:30",1628760,5.112,161.9,0.911,0.12,19.51,106.9184,16.99,18.02,19.72,0,110.7,13.12,17.80,123.9
"2016-05-13 01:35:00",1628761,5.057,162,0.744,0.064,19.58,106.913,16.97,18.03,19.62,0,110.7,13.13,17.78,124.0
"2016-05-13 01:35:30",1628762,5.012,161,0.991,0.079,19.53,106.9093,16.96,18.02,19.64,0,110.7,13.13,17.77,123.0
"2016-05-13 01:36:00",1628763,5.193,162.2,0.874,0.066,19.62,106.904,16.95,18.01,19.68,0,110.7,13.12,17.76,124.2
"2016-05-13 01:36:30",1628764,5.287,161.9,0.83,0.065,19.63,106.8942,16.92,18.01,19.66,0,110.7,13.12,17.74,123.9
"2016-05-13 01:37:00",1628765,5.323,161.1,0.878,0.049,19.62,106.8922,16.92,18,19.68,0,110.7,13.12,17.73,123.1
"2016-05-13 01:37:30",1628766,5.438,160.4,0.91,0.054,19.61,106.8925,16.92,18,19.66,0,110.7,13.12,17.73,122.4
"2016-05-13 01:38:00",1628767,5.379,159.4,0.884,0.051,19.68,106.8934,16.92,18,19.73,0,110.7,13.12,17.73,121.4
"2016-05-13 01:38:30",1628768,5.483,158.5,1.321,0.064,19.73,106.8952,16.93,17.99,19.79,0,110.7,13.12,17.74,120.5
"2016-05-13 01:39:00",1628769,5.428,159.1,1.093,0.057,19.69,106.8979,16.93,17.97,19.88,0,110.7,13.12,17.74,121.1
"2016-05-13 01:39:30",1628770,5.641,159.9,1.376,0.145,19.66,106.8973,16.93,17.97,20,0,110.7,13.12,17.74,121.9
"2016-05-13 01:40:00",1628771,5.873,160.6,0.972,0.089,19.62,106.8935,16.92,17.96,20.31,0,110.7,13.12,17.73,122.6
"2016-05-13 01:40:30",1628772,5.507,158.2,0.877,0.071,19.63,106.8894,16.91,17.95,20.47,0,110.7,13.12,17.72,120.2
"2016-05-13 01:41:00",1628773,5.442,160.6,1.133,0.077,19.49,106.8818,16.89,17.95,20.55,0,110.7,13.12,17.70,122.6
"2016-05-13 01:41:30",1628774,5.292,160.9,0.793,0.051,19.45,106.8703,16.86,17.94,20.48,0,110.7,13.12,17.67,122.9
"2016-05-13 01:42:00",1628775,5.311,162.6,0.962,0.077,19.58,106.8683,16.86,17.92,20.52,0,110.7,13.12,17.67,124.6
"2016-05-13 01:42:30",1628776,5.33,162,0.553,0.09,19.53,106.8698,16.86,17.92,20.48,0,110.7,13.12,17.67,124.0
"2016-05-13 01:43:00",1628777,5.419,162.9,0.522,0.047,19.58,106.871,16.86,17.92,20.61,0,110.7,13.13,17.68,124.9
"2016-05-13 01:43:30",1628778,5.408,164.4,0.498,0.036,19.6,106.8707,16.86,17.9,20.42,0,110.7,13.13,17.67,126.4
"2016-05-13 01:44:00",1628779,5.362,163.9,0.425,0.04,19.6,106.874,16.87,17.9,20.72,0,110.7,13.13,17.68,125.9
"2016-05-13 01:44:30",1628780,5.285,164,0.581,0.061,19.63,106.8726,16.87,17.88,20.8,0,110.7,13.13,17.68,126.0
"2016-05-13 01:45:00",1628781,5.107,164,0.858,0.035,19.57,106.8751,16.88,17.88,20.73,0,110.7,13.13,17.69,126.0
"2016-05-13 01:45:30",1628782,4.974,163.1,0.525,0.049,19.56,106.8743,16.87,17.88,20.77,0,110.7,13.13,17.68,125.1
"2016-05-13 01:46:00",1628783,4.818,162.3,0.629,0.081,19.69,106.8724,16.87,17.87,20.75,0,110.7,13.13,17.68,124.3
"2016-05-13 01:46:30",1628784,4.718,164.3,0.675,0.06,19.49,106.872,16.87,17.87,20.76,0,110.7,13.13,17.68,126.3